Topeka, KS

7:33 PM CDT on June 27, 2017 (GMT -0500)
Billard Municipal

Weather History for KTOP - October, 2011

Change the Weather History Date:

Thursday, October 6, 2011

  Actual Average Record
Temperature  
Mean Temperature 71 °F 60 °F  
Max Temperature 86 °F 72 °F 96 °F (1939)
Min Temperature 55 °F 48 °F 26 °F (1952)
Degree Days  
Heating Degree Days 0 7  
Month to date heating degree days 14 36  
Since 1 July heating degree days 95 103  
Cooling Degree Days 6 2  
Month to date cooling degree days 17 12  
Year to date cooling degree days 1891 1405  
Growing Degree Days 20 (Base 50)    
Moisture  
Dew Point 46 °F    
Average Humidity 43    
Maximum Humidity 66    
Minimum Humidity 20    
Precipitation  
Precipitation 0.00 in 0.10 in 1.90 in (1967)
Month to date precipitation 0.00 0.70  
Year to date precipitation 24.39 30.93  
Snow  
Snow 0.00 in 0.00 in T in (1941)
Month to date snowfall 0.0 0.0  
Year to date snowfall 38.5 11.3  
Since 1 July snowfall 0.0 0.0  
Snow Depth 0.00 in    
Sea Level Pressure  
Sea Level Pressure 29.97 in    
Wind  
Wind Speed 14 mph (SSE)    
Max Wind Speed 28 mph    
Max Gust Speed 36 mph    
Visibility 10 miles    
Events      
T = Trace of Precipitation, MM = Missing Value Source: NWS Daily Summary

Daily Weather History Graph

Daily Weather History Graph

Search for Another Location

Airport or City:

Trip Planner

Search our weather history database for the weather conditions in past years. The results will help you decide how hot, cold, wet, or windy it might be!

Date:

Astronomy

Oct. 06, 2011 Rise Set
Actual Time 7:22 AM CDT 6:57 PM CDT
Civil Twilight 6:56 AM CDT 7:24 PM CDT
Nautical Twilight 6:25 AM CDT 7:55 PM CDT
Astronomical Twilight 5:54 AM CDT 8:26 PM CDT
Moon 4:09 PM CDT (10/6) 2:14 AM CDT (10/6)
Length of Visible Light 12h 28m
Length of Day
11h 34m
Waxing Gibbous, 75% of the Moon is Illuminated
Oct 6
Waxing Gibbous
Oct 11
Full
Oct 19
Last Quarter
Oct 26
New
Nov 2
First Quarter

Hourly Weather History & Observations

Time (CDT) Temp. Dew Point Humidity Pressure Visibility Wind Dir Wind Speed Gust Speed Precip Events Conditions
12:53 AM 63.0 °F 44.1 °F 50% 30.02 in 10.0 mi SE 8.1 mph - N/A   Clear
1:53 AM 63.0 °F 44.1 °F 50% 30.01 in 10.0 mi SSE 9.2 mph - N/A   Clear
2:53 AM 63.0 °F 45.0 °F 52% 30.00 in 10.0 mi SSE 9.2 mph - N/A   Clear
3:53 AM 59.0 °F 45.0 °F 60% 30.01 in 10.0 mi SE 4.6 mph - N/A   Clear
4:53 AM 57.9 °F 45.0 °F 62% 30.01 in 10.0 mi SE 4.6 mph - N/A   Clear
5:53 AM 55.9 °F 45.0 °F 67% 30.01 in 10.0 mi ESE 4.6 mph - N/A   Clear
6:53 AM 55.0 °F 45.0 °F 69% 30.01 in 10.0 mi SE 5.8 mph - N/A   Clear
7:53 AM 60.1 °F 46.0 °F 60% 30.02 in 10.0 mi SE 8.1 mph - N/A   Clear
8:53 AM 64.9 °F 46.9 °F 52% 30.03 in 10.0 mi SSE 11.5 mph 20.7 mph N/A   Clear
9:53 AM 69.1 °F 46.9 °F 45% 30.03 in 10.0 mi SSE 13.8 mph - N/A   Clear
10:53 AM 75.0 °F 46.9 °F 37% 30.02 in 10.0 mi SSE 17.3 mph 24.2 mph N/A   Clear
11:53 AM 79.0 °F 50.0 °F 36% 30.00 in 10.0 mi South 19.6 mph 26.5 mph N/A   Clear
12:53 PM 81.0 °F 51.1 °F 35% 29.99 in 10.0 mi South 16.1 mph 31.1 mph N/A   Clear
1:53 PM 82.9 °F 48.9 °F 31% 29.96 in 10.0 mi South 21.9 mph 29.9 mph N/A   Clear
2:53 PM 82.9 °F 46.0 °F 27% 29.94 in 10.0 mi South 21.9 mph 32.2 mph N/A   Scattered Clouds
3:53 PM 84.9 °F 41.0 °F 21% 29.91 in 10.0 mi SSE 26.5 mph 31.1 mph N/A   Scattered Clouds
4:53 PM 84.9 °F 39.0 °F 20% 29.90 in 10.0 mi South 17.3 mph 33.4 mph N/A   Clear
5:53 PM 82.9 °F 42.1 °F 24% 29.90 in 10.0 mi SSE 18.4 mph 24.2 mph N/A   Clear
6:53 PM 80.1 °F 44.1 °F 28% 29.91 in 10.0 mi SSE 11.5 mph 24.2 mph N/A   Clear
7:53 PM 77.0 °F 44.6 °F 32% 29.93 in 10.0 mi SSE 11.5 mph - N/A   Clear
8:53 PM 73.9 °F 46.9 °F 38% 29.94 in 10.0 mi SE 11.5 mph - N/A   Clear
9:53 PM 73.9 °F 46.9 °F 38% 29.95 in 10.0 mi SE 11.5 mph - N/A   Clear
10:53 PM 73.0 °F 48.9 °F 42% 29.95 in 10.0 mi SSE 19.6 mph 26.5 mph N/A   Clear
11:53 PM 72.0 °F 50.0 °F 46% 29.94 in 10.0 mi SSE 16.1 mph 23.0 mph N/A   Clear